Temp
-17 -17 -18 -19 -18 -17 -18 -17 -18 -17 -17 -16 -17 -17 -16 -16 -17 -17 -17 -17 -17 -17 -18 -18 -17 -17 -17 -17 -18 -18 -18 -18 -18 -18 -18 -18 -19 -19 -19 -19 -19 -19 -20 -21
-19 -19 -19 -20 -19 -18 -18 -18 -18 -18 -17 -17 -18 -18 -18 -18 -17 -17 -18 -18 -18 -18 -18 -18 -18 -18 -18 -18 -19 -18 -18 -18 -18 -19 -19 -19 -20 -20 -21 -21 -21 -21 -22 -22
-19 -19 -20 -20 -18 -19 -19 -19 -19 -19 -18 -18 -19 -18 -19 -18 -17 -17 -18 -17 -18 -18 -18 -18 -18 -18 -18 -18 -18 -18 -18 -18 -19 -19 -19 -20 -20 -21 -21 -22 -22 -22 -23 -23
-21 -21 -21 -20 -20 -20 -20 -20 -20 -20 -19 -20 -19 -19 -19 -19 -18 -18 -18 -19 -18 -18 -18 -18 -18 -18 -19 -19 -19 -19 -19 -19 -19 -20 -20 -21 -21 -22 -22 -22 -22 -23 -23 -23
-22 -22 -22 -22 -22 -22 -22 -21 -21 -21 -21 -20 -20 -20 -20 -19 -19 -19 -19 -19 -19 -19 -19 -19 -19 -19 -20 -20 -20 -20 -20 -20 -20 -21 -21 -22 -22 -23 -23 -23 -23 -23 -24 -24
-23 -23 -23 -22 -22 -22 -22 -22 -22 -22 -21 -21 -20 -20 -21 -20 -19 -19 -19 -20 -20 -20 -20 -20 -20 -20 -21 -21 -21 -20 -21 -21 -21 -22 -22 -23 -23 -23 -23 -23 -24 -24 -25 -25
-25 -25 -24 -24 -24 -24 -23 -23 -22 -23 -22 -22 -22 -21 -21 -21 -20 -20 -20 -20 -21 -20 -20 -21 -21 -21 -22 -22 -21 -22 -22 -22 -22 -23 -23 -23 -23 -23 -24 -24 -24 -24 -25 -26
-25 -25 -25 -25 -24 -24 -24 -23 -23 -23 -23 -23 -23 -22 -22 -22 -22 -22 -22 -22 -22 -21 -21 -21 -22 -22 -23 -22 -23 -23 -22 -22 -23 -23 -23 -23 -23 -24 -24 -24 -24 -24 -25 -25
-26 -26 -25 -26 -26 -26 -25 -25 -24 -24 -24 -24 -24 -23 -23 -22 -22 -22 -22 -22 -22 -22 -21 -22 -22 -23 -23 -23 -23 -23 -23 -23 -23 -23 -23 -24 -24 -24 -24 -24 -24 -24 -25 -26
-27 -26 -27 -27 -27 -27 -27 -27 -26 -26 -25 -25 -25 -24 -24 -23 -23 -22 -22 -22 -22 -22 -22 -23 -23 -23 -23 -23 -23 -23 -23 -23 -23 -24 -24 -24 -24 -24 -25 -24 -24 -25 -25 -26
-29 -30 -29 -29 -28 -29 -29 -29 -28 -27 -26 -26 -25 -25 -24 -23 -23 -23 -23 -23 -23 -23 -23 -23 -23 -23 -23 -23 -23 -23 -24 -23 -24 -24 -24 -24 -24 -25 -25 -24 -24 -25 -26 -26
-30 -30 -30 -29 -29 -29 -29 -29 -29 -29 -28 -27 -27 -27 -26 -25 -25 -24 -24 -23 -23 -23 -23 -23 -23 -23 -23 -23 -23 -23 -24 -24 -24 -24 -24 -24 -25 -25 -24 -24 -25 -25 -26 -26
-31 -30 -30 -29 -30 -30 -30 -30 -29 -29 -29 -29 -28 -27 -27 -27 -26 -26 -24 -24 -23 -23 -23 -23 -23 -23 -23 -23 -23 -23 -24 -24 -24 -24 -25 -25 -25 -24 -24 -25 -25 -25 -26 -26
-30 -30 -30 -30 -29 -29 -29 -29 -29 -30 -29 -29 -29 -29 -29 -28 -27 -26 -26 -25 -24 -24 -23 -23 -24 -24 -23 -23 -24 -24 -24 -24 -25 -25 -25 -25 -25 -24 -25 -25 -25 -26 -26 -26
-30 -30 -29 -29 -29 -30 -30 -30 -30 -30 -30 -30 -29 -29 -29 -29 -29 -28 -27 -26 -25 -24 -24 -24 -24 -23 -24 -24 -24 -24 -25 -25 -25 -24 -25 -25 -24 -25 -25 -25 -26 -26 -26 -26
-30 -30 -30 -30 -30 -30 -30 -30 -30 -31 -31 -30 -29 -29 -29 -29 -29 -29 -28 -28 -26 -25 -24 -24 -24 -24 -24 -24 -24 -25 -25 -25 -25 -24 -25 -25 -25 -25 -25 -26 -26 -27 -26 -26
-30 -30 -30 -30 -30 -29 -30 -30 -30 -30 -30 -30 -30 -29 -29 -29 -29 -28 -28 -28 -28 -28 -26 -25 -24 -24 -24 -24 -24 -25 -25 -25 -24 -25 -25 -25 -25 -25 -26 -26 -26 -26 -26 -26
-30 -30 -29 -29 -29 -29 -29 -29 -29 -29 -29 -29 -29 -29 -29 -28 -28 -28 -28 -27 -28 -28 -28 -26 -25 -24 -24 -24 -25 -25 -25 -25 -25 -25 -25 -25 -25 -25 -26 -26 -26 -26 -26 -26
-30 -30 -29 -29 -29 -29 -29 -29 -29 -29 -28 -28 -28 -28 -28 -28 -28 -27 -27 -27 -27 -28 -28 -28 -27 -25 -25 -24 -24 -25 -25 -25 -25 -25 -25 -25 -25 -26 -26 -26 -26 -25 -25 -26
-30 -29 -29 -29 -29 -29 -28 -29 -28 -28 -28 -28 -28 -27 -27 -27 -26 -26 -26 -26 -27 -28 -28 -28 -27 -26 -25 -25 -25 -25 -25 -25 -26 -26 -26 -26 -26 -26 -26 -26 -26 -25 -25 -25
-30 -30 -29 -29 -29 -28 -28 -28 -28 -28 -28 -27 -27 -27 -27 -27 -27 -26 -26 -27 -28 -29 -29 -28 -26 -26 -25 -25 -25 -25 -26 -26 -26 -26 -26 -26 -26 -26 -26 -26 -26 -26 -26 -26
-30 -30 -30 -29 -29 -29 -28 -28 -28 -28 -28 -28 -27 -27 -27 -27 -27 -27 -26 -27 -27 -27 -27 -26 -26 -26 -25 -25 -26 -26 -26 -26 -26 -26 -26 -26 -26 -26 -26 -26 -26 -26 -26 -26
-30 -30 -30 -30 -29 -29 -29 -29 -29 -29 -29 -28 -28 -28 -27 -27 -27 -27 -27 -26 -26 -26 -26 -26 -26 -26 -26 -26 -26 -26 -26 -26 -26 -26 -26 -26 -26 -26 -26 -26 -27 -26 -27 -27
-31 -31 -31 -30 -30 -30 -30 -30 -30 -29 -30 -29 -29 -28 -28 -27 -27 -27 -27 -27 -26 -26 -26 -26 -26 -26 -27 -27 -27 -27 -27 -26 -27 -27 -27 -27 -27 -27 -27 -27 -27 -27 -27 -27
-31 -31 -31 -31 -30 -30 -30 -30 -30 -30 -29 -29 -29 -29 -28 -28 -28 -27 -27 -27 -27 -27 -27 -27 -27 -27 -27 -27 -27 -27 -27 -27 -27 -27 -27 -27 -27 -27 -27 -27 -27 -27 -27 -28
-31 -31 -31 -30 -30 -30 -30 -30 -30 -30 -29 -29 -29 -29 -29 -28 -28 -28 -28 -27 -27 -27 -27 -27 -27 -27 -27 -27 -27 -27 -27 -27 -27 -27 -27 -27 -27 -27 -27 -27 -27 -27 -28 -28
-31 -31 -31 -30 -30 -30 -30 -29 -29 -29 -29 -29 -29 -29 -29 -29 -28 -28 -28 -28 -28 -27 -27 -27 -27 -27 -27 -27 -27 -27 -27 -27 -27 -27 -27 -27 -28 -28 -27 -28 -28 -28 -28 -28
Height
5619 5623 5622 5619 5621 5625 5619 5620 5617 5626 5624 5636 5632 5628 5632 5634 5631 5629 5626 5626 5626 5625 5624 5624 5625 5626 5625 5625 5626 5626 5625 5625 5625 5623 5621 5620 5617 5615 5614 5610 5608 5605 5602 5600
5596 5603 5602 5598 5605 5606 5602 5605 5601 5601 5606 5617 5610 5612 5617 5620 5617 5615 5612 5611 5612 5611 5611 5610 5611 5610 5611 5612 5613 5612 5611 5612 5612 5609 5607 5606 5605 5603 5599 5597 5597 5594 5590 5587
5578 5587 5583 5577 5588 5590 5587 5586 5586 5580 5593 5596 5591 5594 5597 5600 5599 5598 5597 5594 5593 5593 5595 5596 5596 5593 5595 5598 5600 5599 5600 5599 5599 5599 5597 5595 5593 5593 5591 5590 5587 5584 5581 5578
5562 5568 5558 5566 5571 5566 5564 5567 5568 5562 5572 5575 5574 5573 5581 5581 5581 5582 5580 5579 5576 5576 5577 5579 5579 5578 5581 5584 5586 5587 5588 5588 5588 5588 5587 5586 5585 5584 5582 5580 5577 5576 5573 5571
5545 5548 5547 5550 5551 5548 5549 5552 5546 5549 5551 5550 5555 5559 5563 5560 5561 5563 5562 5559 5562 5565 5565 5568 5566 5568 5569 5573 5574 5576 5577 5576 5577 5577 5577 5576 5576 5575 5573 5569 5568 5567 5564 5561
5529 5529 5529 5533 5531 5534 5532 5531 5526 5527 5529 5532 5538 5542 5540 5543 5547 5548 5548 5548 5549 5551 5553 5553 5553 5553 5556 5560 5563 5564 5565 5566 5567 5567 5567 5566 5564 5564 5563 5560 5558 5557 5554 5551
5514 5512 5512 5513 5519 5519 5517 5516 5512 5514 5512 5516 5518 5521 5524 5525 5528 5530 5530 5532 5533 5535 5538 5538 5538 5541 5545 5547 5552 5552 5553 5555 5557 5556 5555 5555 5553 5552 5551 5550 5549 5547 5544 5541
5501 5498 5498 5498 5501 5502 5497 5495 5499 5497 5497 5499 5502 5504 5506 5507 5510 5512 5512 5513 5516 5520 5524 5526 5526 5530 5534 5537 5539 5541 5543 5545 5545 5545 5543 5543 5542 5541 5540 5540 5538 5535 5532 5528
5484 5483 5484 5483 5475 5477 5480 5477 5478 5479 5482 5478 5481 5484 5487 5488 5492 5494 5496 5499 5502 5505 5508 5510 5512 5516 5521 5524 5526 5529 5531 5534 5534 5533 5532 5531 5531 5530 5531 5530 5526 5523 5521 5516
5463 5469 5461 5462 5455 5462 5459 5453 5457 5457 5457 5456 5460 5465 5467 5470 5471 5474 5477 5481 5485 5489 5492 5495 5498 5503 5507 5511 5513 5515 5520 5522 5523 5522 5521 5521 5521 5521 5520 5518 5515 5511 5507 5503
5444 5444 5443 5441 5445 5440 5437 5433 5436 5438 5434 5434 5438 5445 5446 5449 5452 5455 5459 5464 5468 5474 5479 5481 5485 5489 5494 5496 5500 5504 5509 5509 5510 5510 5511 5511 5511 5510 5510 5506 5504 5500 5495 5489
5429 5435 5428 5432 5433 5428 5420 5420 5417 5416 5417 5416 5414 5419 5422 5425 5432 5434 5440 5447 5451 5455 5460 5465 5469 5475 5480 5484 5488 5491 5494 5496 5498 5499 5500 5500 5501 5500 5499 5497 5494 5490 5484 5477
5421 5423 5420 5418 5416 5412 5407 5405 5403 5399 5397 5396 5397 5396 5401 5404 5410 5411 5418 5425 5430 5435 5440 5447 5454 5460 5466 5471 5475 5478 5482 5484 5487 5489 5490 5490 5490 5490 5489 5487 5483 5480 5474 5469
5415 5415 5413 5409 5407 5402 5397 5393 5389 5385 5381 5379 5379 5378 5379 5381 5388 5392 5400 5404 5407 5415 5426 5430 5435 5445 5452 5456 5460 5464 5469 5473 5476 5477 5478 5479 5480 5481 5480 5477 5474 5470 5466 5462
5409 5407 5405 5400 5395 5391 5386 5380 5373 5367 5362 5361 5362 5366 5368 5369 5370 5373 5378 5382 5388 5398 5407 5418 5420 5429 5435 5441 5446 5451 5457 5461 5464 5466 5467 5467 5471 5472 5471 5468 5464 5459 5456 5454
5402 5400 5396 5391 5386 5382 5376 5369 5362 5357 5354 5350 5352 5355 5356 5357 5358 5360 5361 5362 5366 5378 5388 5396 5406 5415 5421 5428 5434 5439 5444 5450 5453 5456 5455 5460 5464 5464 5460 5458 5454 5449 5447 5446
5396 5394 5390 5386 5381 5376 5370 5364 5358 5354 5350 5348 5348 5348 5347 5348 5347 5347 5347 5347 5348 5354 5361 5375 5390 5399 5404 5411 5421 5428 5432 5440 5442 5443 5448 5452 5454 5454 5450 5447 5444 5440 5438 5438
5390 5388 5385 5381 5376 5371 5366 5361 5357 5353 5350 5347 5346 5344 5343 5340 5337 5334 5331 5331 5332 5335 5340 5351 5368 5382 5389 5400 5409 5416 5424 5430 5431 5435 5440 5442 5444 5444 5439 5437 5434 5432 5430 5429
5383 5382 5379 5375 5371 5367 5363 5358 5354 5350 5347 5344 5342 5339 5336 5331 5325 5319 5314 5314 5316 5319 5324 5333 5348 5367 5378 5388 5397 5407 5414 5419 5422 5427 5432 5434 5435 5432 5430 5429 5426 5424 5422 5422
5377 5376 5374 5370 5366 5362 5358 5355 5352 5348 5345 5341 5336 5333 5330 5326 5317 5310 5305 5305 5306 5307 5310 5322 5337 5355 5367 5380 5389 5397 5405 5409 5412 5419 5423 5425 5425 5421 5422 5420 5418 5416 5415 5415
5370 5369 5368 5365 5361 5358 5355 5352 5349 5346 5343 5340 5337 5333 5328 5324 5317 5311 5307 5304 5305 5306 5312 5324 5337 5349 5362 5371 5381 5389 5395 5399 5404 5409 5414 5416 5415 5413 5413 5412 5411 5409 5408 5409
5364 5363 5362 5360 5358 5355 5352 5349 5346 5344 5341 5338 5336 5332 5330 5326 5321 5316 5311 5310 5310 5314 5319 5328 5338 5349 5360 5368 5376 5381 5386 5391 5396 5401 5404 5405 5405 5405 5405 5404 5403 5403 5402 5402
5357 5357 5355 5354 5353 5351 5348 5346 5343 5342 5339 5336 5333 5331 5329 5328 5325 5323 5320 5316 5317 5322 5326 5333 5341 5350 5358 5365 5371 5374 5378 5385 5388 5392 5394 5394 5395 5396 5397 5396 5395 5395 5394 5394
5351 5350 5349 5348 5347 5345 5343 5341 5339 5338 5336 5334 5332 5330 5328 5326 5327 5327 5327 5328 5329 5331 5335 5341 5346 5352 5356 5360 5363 5367 5373 5377 5380 5382 5383 5384 5386 5387 5387 5387 5387 5387 5386 5387
5345 5344 5343 5342 5341 5339 5338 5336 5334 5333 5332 5331 5330 5328 5327 5326 5326 5326 5327 5328 5331 5334 5337 5341 5344 5347 5350 5353 5357 5361 5365 5368 5370 5371 5373 5375 5377 5377 5377 5377 5377 5377 5377 5377
5339 5338 5336 5335 5333 5332 5331 5329 5327 5326 5326 5326 5325 5325 5324 5324 5323 5323 5324 5326 5328 5330 5333 5335 5337 5340 5343 5346 5349 5352 5355 5358 5360 5362 5363 5365 5366 5367 5367 5367 5366 5366 5366 5367
5331 5330 5329 5327 5325 5324 5323 5322 5321 5320 5319 5319 5319 5318 5318 5319 5319 5320 5319 5320 5322 5324 5326 5328 5331 5333 5335 5338 5340 5343 5345 5347 5349 5351 5352 5354 5355 5356 5356 5356 5355 5354 5355 5356
Wind_Speed
66 67 63 62 67 69 62 61 60 56 58 61 57 58 56 52 53 53 54 55 52 51 51 49 47 53 53 53 44 37 32 33 33 30 34 37 40 41 43 45 49 52 51 47
67 67 64 64 67 70 65 63 62 64 64 59 58 55 52 51 52 53 55 59 54 54 52 55 55 52 56 48 39 34 35 31 34 33 35 38 41 43 43 44 46 45 45 46
71 67 68 70 73 66 64 63 63 65 60 55 54 53 56 51 52 51 54 60 62 67 59 60 62 59 53 46 38 37 36 35 34 36 40 42 42 42 42 45 43 43 42 38
64 65 72 71 67 63 64 63 57 60 54 57 56 58 51 46 51 54 53 69 75 75 66 68 66 52 41 36 38 39 38 34 35 41 42 42 40 42 42 40 38 38 37 39
62 59 56 51 56 61 59 58 61 59 59 62 64 66 61 60 66 54 61 64 52 39 38 40 37 37 40 39 40 38 36 33 38 41 39 37 40 38 39 37 37 38 37 37
52 51 52 54 57 56 55 53 56 57 60 65 65 63 64 65 62 67 67 67 64 59 62 54 35 37 37 38 38 38 35 34 38 36 34 36 36 37 37 36 39 40 38 38
47 48 47 53 51 50 47 48 39 48 44 51 54 58 62 64 65 64 62 61 53 44 43 36 38 42 39 38 39 35 35 34 32 33 34 35 35 35 38 39 40 40 42 40
51 51 51 52 54 57 60 60 61 66 69 66 54 55 58 59 60 59 54 45 42 41 42 45 43 43 41 39 36 34 35 33 32 35 34 33 35 37 39 43 40 42 44 45
57 59 59 59 63 61 62 65 64 63 67 70 70 68 64 59 62 60 53 45 45 46 49 45 44 45 44 43 42 40 37 33 33 34 33 33 37 39 41 42 41 45 51 49
58 59 60 61 66 66 67 68 63 63 62 66 65 64 62 61 53 56 55 49 50 51 53 47 45 47 49 48 47 43 38 39 35 34 32 34 38 42 42 40 44 48 52 52
45 46 52 56 56 57 59 64 68 72 72 66 66 65 61 61 59 56 45 48 49 52 54 53 51 50 49 46 42 41 37 35 34 33 34 37 40 39 37 40 46 50 52 55
42 42 48 44 43 46 51 52 53 56 61 71 73 70 68 68 67 65 66 58 57 58 59 57 53 52 50 46 41 46 37 32 35 35 36 37 39 34 37 43 48 51 52 48
38 41 43 38 32 34 37 38 40 43 44 49 57 70 63 65 70 72 70 66 69 62 64 62 55 53 51 49 47 42 35 33 35 36 34 34 32 31 40 45 48 52 44 36
28 26 26 31 33 34 38 41 42 45 48 48 44 41 49 57 61 67 68 73 71 59 62 61 52 48 51 51 51 39 33 34 37 36 36 33 28 36 43 46 49 43 34 28
27 27 25 29 31 33 39 42 45 43 42 42 40 36 34 35 40 49 55 60 74 72 66 64 55 57 56 55 43 35 33 36 37 36 32 26 32 39 42 43 45 37 30 25
17 20 24 25 27 30 29 29 25 22 21 20 21 27 32 34 34 36 41 46 58 69 74 72 56 55 50 51 40 36 33 39 36 33 24 30 37 41 37 39 40 32 27 25
15 17 19 20 23 25 27 27 21 20 14 14 14 21 28 28 26 23 24 33 46 52 61 75 70 62 55 60 47 37 38 38 35 28 30 33 36 39 32 36 35 28 25 25
11 12 17 19 18 18 20 19 16 15 15 13 17 21 26 29 32 33 38 38 40 39 55 65 70 58 53 61 42 39 41 37 32 32 37 34 35 37 31 35 33 25 23 24
18 17 19 22 17 17 15 18 20 16 14 15 19 22 20 24 31 35 36 36 37 37 39 54 59 68 49 56 47 45 42 39 35 38 36 33 34 33 29 33 30 24 21 21
19 21 19 22 21 18 17 16 13 14 16 18 22 23 13 19 18 18 14 16 20 24 34 42 52 58 46 53 48 48 42 37 36 35 34 33 32 25 29 30 28 23 22 21
21 22 21 21 21 22 21 20 17 16 17 18 19 23 20 16 12 13 13 7 9 15 24 34 40 48 50 51 46 35 37 36 35 32 32 34 28 28 29 29 27 24 21 22
17 20 22 24 21 20 21 23 24 21 16 16 16 20 21 15 10 10 7 3 17 23 26 31 37 48 43 39 33 33 37 36 31 32 33 33 30 30 29 27 28 27 22 23
21 21 20 21 23 22 22 22 22 19 18 15 16 16 14 16 12 6 12 11 10 14 24 40 43 45 39 34 33 36 33 33 34 34 33 34 31 31 30 29 30 29 26 25
15 15 16 18 19 18 19 20 21 18 15 14 13 13 13 11 7 5 3 7 21 30 28 29 29 29 29 29 30 33 34 35 35 32 32 34 33 34 32 29 31 30 30 28
16 18 17 18 20 20 21 22 22 21 18 16 16 13 10 11 11 13 12 14 13 13 16 21 25 26 27 31 34 35 34 34 33 33 33 34 35 33 33 32 32 33 33 31
20 21 22 24 24 23 22 22 22 20 21 21 18 15 15 13 11 13 15 20 21 23 25 25 25 26 28 30 30 32 34 36 35 36 36 37 36 35 35 37 40 37 34 32
23 21 23 25 24 24 23 24 22 21 21 21 20 19 18 17 16 14 15 18 20 23 27 30 32 34 35 36 36 38 38 38 39 39 40 40 37 38 39 40 41 37 34 32
Wind_Direction
268 264 255 256 259 264 270 271 267 275 272 287 270 270 271 272 271 271 271 270 274 274 274 272 273 274 268 272 277 284 282 280 273 275 289 293 295 295 296 300 301 300 299 301
260 258 257 268 264 265 271 275 274 275 276 277 269 270 267 267 266 267 270 272 270 270 270 277 266 274 274 272 274 272 279 270 276 286 291 293 296 299 302 300 300 303 304 303
260 262 268 270 268 272 273 271 272 270 276 267 265 266 263 262 262 266 269 268 266 267 262 267 272 269 263 266 265 274 270 271 278 285 284 289 294 297 296 294 299 300 300 302
262 270 273 274 277 272 270 269 268 270 270 259 256 265 255 268 260 262 268 256 257 260 264 267 261 252 261 263 270 267 262 271 275 278 285 289 292 286 289 297 296 293 297 301
272 270 271 270 263 264 264 267 265 266 264 263 263 260 263 263 257 246 253 250 262 265 272 270 262 264 270 264 263 265 266 272 276 282 285 287 283 290 293 291 290 294 294 298
259 260 262 264 263 265 270 269 269 267 265 261 262 260 261 262 263 264 267 271 275 280 279 282 259 261 264 264 264 260 267 272 276 280 278 279 286 287 285 285 286 289 290 290
268 270 268 268 266 268 267 257 250 264 262 259 258 257 261 264 264 265 266 269 274 267 264 247 250 256 262 262 262 261 263 270 273 272 272 277 283 280 283 279 282 288 286 284
269 265 265 269 270 267 266 266 264 264 262 266 260 258 255 257 262 265 265 264 257 251 240 244 245 248 252 259 255 256 262 270 270 268 273 278 281 279 278 274 280 288 290 291
268 268 272 270 266 265 264 264 263 263 263 265 268 266 261 261 260 259 260 256 249 249 243 245 241 246 250 253 252 255 264 267 268 267 276 280 281 278 276 276 282 288 294 295
272 273 266 263 262 263 262 260 260 260 257 257 255 259 260 256 251 250 253 254 250 246 247 244 243 245 248 248 250 261 264 268 261 265 274 275 276 279 276 278 285 291 295 298
273 272 269 267 269 270 269 269 264 255 253 246 244 245 242 244 244 241 242 241 240 243 246 242 239 241 243 244 257 261 259 260 259 266 267 270 275 276 278 281 286 294 298 299
276 275 279 282 279 281 278 278 277 273 269 268 272 264 257 245 249 247 247 242 238 237 237 237 233 237 238 248 252 250 256 261 257 259 262 268 273 272 276 282 290 295 300 299
285 288 290 291 284 278 277 277 278 277 275 270 264 263 263 263 259 247 241 237 237 232 229 232 229 240 248 252 257 246 260 256 251 253 261 268 269 270 272 284 291 295 297 299
285 284 286 291 289 285 283 284 285 286 281 273 266 262 254 252 252 257 255 240 239 232 234 223 239 242 247 246 242 241 254 255 247 256 257 269 260 264 276 286 291 293 287 291
275 282 291 304 299 294 292 295 293 287 280 272 261 258 260 265 259 251 251 251 243 236 243 239 226 243 241 236 228 243 254 246 249 253 258 249 252 265 277 285 293 286 277 279
281 304 311 307 306 306 312 316 314 311 288 265 252 254 257 260 259 256 251 245 245 240 233 237 230 224 219 225 237 246 250 244 244 249 233 245 260 269 279 291 292 284 265 270
287 308 316 311 305 316 320 326 333 323 296 271 254 254 259 268 261 250 255 255 250 239 238 232 223 224 214 223 234 239 239 234 239 224 231 247 261 272 282 294 295 279 260 264
274 301 328 314 315 314 312 326 327 341 326 303 284 271 279 276 263 258 261 260 251 245 235 225 223 219 218 216 231 229 225 235 227 222 236 250 260 272 287 296 294 280 266 264
268 289 320 332 328 316 307 313 323 335 332 315 298 288 293 290 289 288 273 263 252 246 233 225 217 211 216 215 230 221 223 235 224 229 245 255 264 272 290 295 289 275 267 260
275 295 305 325 331 337 328 320 327 336 336 341 344 352 341 325 316 322 299 270 246 230 206 203 208 205 208 216 214 218 222 225 217 232 249 257 265 272 289 301 285 270 265 256
274 283 295 316 323 325 331 332 329 322 322 327 329 334 356 355 340 343 341 294 208 177 182 193 188 195 201 200 209 212 220 212 221 235 248 258 270 274 287 301 287 268 262 256
287 287 289 294 312 314 317 320 322 322 314 314 316 320 325 357 16 18 352 282 185 179 170 182 183 192 196 202 208 219 213 217 227 238 246 258 269 276 281 294 295 268 260 258
284 286 290 294 301 306 306 308 308 311 313 311 303 307 302 306 340 47 82 148 170 160 164 171 185 193 204 210 221 220 216 224 230 238 249 257 267 274 276 289 297 274 259 257
271 272 280 286 287 291 299 300 292 293 297 314 312 294 297 291 271 308 169 136 148 161 173 186 201 207 211 217 222 222 222 231 237 242 250 259 266 273 276 285 287 285 261 257
271 275 287 289 284 281 289 285 286 279 281 287 301 309 306 284 277 257 232 222 215 216 218 214 215 217 220 224 228 229 233 238 244 251 253 259 264 267 273 281 285 281 264 255
291 296 293 293 292 277 286 292 286 281 274 276 286 292 298 298 288 265 258 247 236 231 232 233 234 236 238 240 240 240 243 251 256 254 252 256 263 267 273 276 290 275 258 251
286 299 304 295 289 284 285 285 285 282 280 281 279 281 289 287 280 280 269 256 252 250 247 243 242 243 243 245 249 249 251 252 249 246 251 257 263 269 273 277 283 268 253 249